User: anonymous   Login
Location: Fontevrault
(47.1823°N, 0.0493°E)
Time: 06:07:17
(UTC+00:00)
Language:

Cosmos 1975 Rocket - Orbit

View from above orbital plane
View from above orbital plane
View from above satellite
View from above satellite

Ground track
Ground track

The orbit data is extracted from the following two-line orbital elements,

1 19574U 88093B   21261.40777714  .00000094  00000-0  84794-5 0  9993
2 19574  82.5313 131.8147 0022498  35.2692 137.3298 14.83385221758759
Epoch (UTC): 18 September 2021 09:47:11
Eccentricity: 0.0022498
inclination: 82.5313°
perigee height: 603 km
apogee height: 634 km
right ascension of ascending node: 131.8147°
argument of perigee: 35.2692°
revolutions per day: 14.83385221
mean anomaly at epoch: 137.3298°
orbit number at epoch: 75875

The dashed part of the orbit path shows where the satellite is in the earth's shadow,  

DLR